Temperature
22 21 22 21 21 21 20 20 20 20 20 20 20 20 20 20 20 20 20 19 19 19 19 18 18 18 18 18 18 18 18 18 19 19 18 18 18 18 18 18 17 17 17
22 21 22 21 21 21 20 20 20 20 20 20 20 20 20 20 20 20 19 19 19 19 19 19 18 18 18 18 18 18 18 18 18 18 18 18 18 18 18 17 17 17 18
22 21 22 22 21 21 21 20 20 20 20 20 20 20 20 20 20 20 20 19 19 19 19 19 19 19 19 19 19 19 19 18 18 18 17 17 17 17 17 17 17 18 17
21 21 22 22 21 21 21 21 20 20 20 20 20 20 20 20 20 20 20 20 19 19 19 19 19 19 19 19 19 19 19 19 18 18 17 17 17 17 17 17 17 17 17
21 21 22 22 21 21 21 21 21 21 20 20 20 20 20 20 20 20 20 20 20 20 20 20 20 20 20 19 19 19 19 19 18 17 17 17 17 18 17 17 17 17 17
21 21 22 22 22 21 21 21 21 21 21 21 21 21 20 20 20 20 20 20 20 20 20 20 20 20 20 19 19 19 19 19 18 17 17 17 17 18 18 17 17 17 17
21 20 21 22 22 21 21 21 21 21 21 21 21 21 20 20 20 20 20 20 20 19 19 19 19 19 19 19 19 19 19 19 17 17 17 17 17 18 18 18 17 17 17
21 21 20 22 21 21 21 21 21 21 21 21 21 21 20 20 20 20 20 20 19 19 19 19 19 19 19 19 19 19 19 19 17 17 17 17 17 18 18 18 18 17 17
22 21 20 20 21 21 21 21 21 21 21 21 20 20 20 20 20 20 20 19 19 19 19 19 19 19 19 19 19 19 19 19 17 18 17 17 17 18 18 18 18 18 18
21 21 19 19 19 20 20 21 21 20 20 20 20 20 20 20 20 20 19 19 19 19 19 19 19 18 18 18 18 18 18 18 18 18 18 17 18 18 18 17 17 17 17
21 20 20 20 19 19 19 19 20 20 20 20 20 20 20 19 19 19 19 19 19 19 19 19 18 18 18 18 18 18 18 17 17 18 18 18 18 18 18 18 17 17 17
20 20 20 19 19 19 19 19 19 19 19 20 19 19 19 18 18 18 18 19 19 19 19 18 18 18 18 17 17 18 17 17 17 18 18 18 18 18 18 18 18 17 17
20 20 20 19 19 19 19 19 19 19 19 19 18 18 18 18 18 18 18 18 18 18 18 17 18 17 17 17 17 17 17 17 18 18 18 18 18 18 18 18 18 18 18
20 20 20 19 19 19 19 19 19 18 18 18 18 18 18 18 18 18 18 18 17 18 18 17 18 17 17 17 17 17 17 17 18 18 18 18 18 18 18 18 18 18 18
20 20 19 19 19 19 19 18 18 18 18 18 18 18 18 18 18 18 18 18 18 18 18 18 18 17 17 17 17 17 17 17 17 18 18 18 18 18 18 18 18 18 18
20 20 19 19 18 18 18 18 18 18 18 18 18 18 18 18 18 18 17 18 18 18 17 18 17 17 17 17 17 17 17 17 17 17 17 18 18 18 18 18 18 18 18
19 19 19 18 18 18 18 18 17 17 18 17 17 18 18 18 18 18 18 18 18 18 17 17 17 17 17 17 17 17 17 17 17 17 17 17 18 18 18 18 18 18 18
18 18 18 18 17 17 18 18 17 17 17 17 17 17 17 17 17 17 17 17 17 17 17 17 17 17 17 17 17 17 17 17 17 17 17 17 17 17 18 18 18 18 18
17 17 18 17 17 17 17 17 17 17 17 17 17 17 17 17 17 16 17 17 17 17 17 17 17 17 17 17 17 17 17 17 17 17 17 17 17 17 17 17 18 18 18
17 17 17 17 17 17 17 17 17 16 17 16 16 16 16 16 16 16 16 16 17 17 17 17 17 17 17 17 17 17 17 17 17 17 17 17 17 17 17 17 17 17 18
17 17 17 17 17 17 17 16 16 16 16 16 15 15 15 16 16 16 16 16 16 16 17 16 16 16 16 16 17 17 17 17 17 17 17 17 17 17 17 17 17 17 17
16 17 17 17 17 17 17 17 16 16 16 16 15 15 15 15 15 15 16 16 16 16 16 16 16 16 16 16 17 18 19 19 17 17 17 17 17 17 17 17 16 16 17
16 16 16 17 17 17 17 16 16 16 16 15 15 15 15 15 15 15 15 16 16 16 16 16 16 16 16 16 16 17 19 20 19 18 17 17 16 16 17 17 16 16 16
16 16 16 17 16 16 16 15 15 15 15 15 15 15 15 15 15 15 15 15 15 15 15 15 16 16 16 16 16 16 17 18 19 19 17 17 16 16 16 16 16 16 16
16 16 16 16 16 16 16 15 15 15 15 15 14 14 14 14 14 14 14 15 15 15 15 15 15 15 16 16 16 16 16 16 17 18 19 18 17 17 16 16 16 16 16
16 16 15 15 15 15 15 15 15 14 14 14 14 14 14 14 14 14 14 14 14 14 14 14 15 15 15 15 16 16 16 17 17 17 18 17 18 17 16 16 16 16 16
Wind_Speed
15 19 23 19 17 15 15 15 16 17 17 17 17 16 15 14 13 13 12 11 10 9 8 8 8 9 9 9 10 10 11 11 12 12 12 11 11 11 12 11 11 14 15
18 21 23 19 18 16 16 15 15 16 16 16 16 16 15 14 13 12 11 10 9 8 8 8 8 8 9 9 9 10 10 10 10 10 11 11 11 10 10 7 5 14 13
20 22 23 20 18 17 16 16 15 15 15 16 15 15 14 13 13 12 11 10 9 8 7 7 7 8 8 8 9 9 9 9 9 9 9 10 11 9 9 8 11 14 13
20 21 21 21 19 18 17 16 16 15 15 15 15 14 13 13 12 12 11 10 9 8 8 7 7 7 7 8 8 8 8 8 8 9 8 8 10 11 8 9 10 11 12
18 19 21 22 19 18 17 16 15 15 15 14 14 13 13 12 12 11 10 9 9 8 8 7 7 7 7 7 8 8 8 7 7 8 5 6 7 11 9 9 9 10 11
18 18 21 21 19 18 17 16 16 15 14 14 13 13 12 12 11 10 10 9 8 8 8 8 7 7 7 7 7 7 7 7 9 7 6 6 7 10 9 9 9 10 10
18 17 21 21 20 18 18 17 16 15 14 14 13 12 11 11 11 10 9 9 8 8 8 8 8 8 8 8 8 8 8 8 9 6 6 6 6 9 8 10 10 10 10
17 16 20 20 19 18 17 16 16 15 14 13 12 11 11 10 10 9 9 9 9 8 8 8 8 8 9 9 9 9 9 10 11 8 8 7 8 9 9 10 11 11 12
16 15 17 19 18 17 16 16 15 14 14 13 12 11 11 10 10 10 9 9 9 9 9 9 9 10 10 10 11 11 11 11 12 10 10 8 11 11 11 12 13 13 13
14 14 14 16 16 16 16 16 14 14 13 12 12 11 11 11 11 11 12 12 12 11 11 11 11 12 12 12 13 13 13 13 15 14 11 9 13 12 12 14 15 16 16
13 12 13 14 14 14 14 15 15 14 14 13 13 13 12 13 14 13 15 13 13 13 13 13 14 14 14 15 16 15 14 14 15 13 11 10 14 13 14 14 15 17 19
15 14 12 12 12 12 11 11 12 13 13 13 12 13 13 12 11 11 9 11 13 14 15 16 16 16 16 15 17 18 15 16 15 12 11 13 14 15 15 16 16 17 19
15 14 13 12 11 11 8 9 9 9 9 12 12 12 11 11 10 11 10 11 14 15 15 15 16 15 15 13 11 13 14 14 12 12 12 17 17 18 18 18 18 18 19
14 14 13 12 11 10 9 7 7 7 7 8 9 12 11 9 9 9 9 10 10 10 10 11 10 12 13 13 13 13 14 13 13 12 10 16 18 19 19 19 20 20 20
12 13 12 11 10 9 7 5 6 6 6 8 8 10 12 10 10 10 8 9 11 10 10 10 10 11 11 12 13 13 13 14 14 13 11 14 18 19 20 20 20 20 21
10 11 10 10 9 7 6 6 6 7 7 9 9 10 12 12 10 10 10 9 10 11 11 9 11 10 10 10 12 12 13 13 13 14 14 13 18 20 20 20 20 20 20
6 7 7 8 8 7 7 7 7 7 8 8 9 11 12 13 11 10 10 9 9 10 10 9 10 9 10 10 12 12 11 12 12 13 14 12 13 19 21 19 19 20 20
3 4 3 3 3 4 4 4 5 7 7 8 10 11 12 12 12 9 9 9 8 8 8 8 8 9 9 9 9 9 9 9 12 12 13 13 12 12 17 20 19 19 19
4 4 3 2 1 2 3 4 5 6 7 8 9 9 10 10 10 8 8 7 7 7 8 9 8 8 8 9 9 9 9 9 10 11 11 12 13 12 12 14 18 18 19
5 4 3 1 0 2 3 4 5 6 6 6 6 7 8 7 8 6 6 7 7 7 7 8 8 8 8 7 8 8 8 8 8 9 10 10 11 12 13 12 12 16 20
6 4 3 2 1 2 2 4 5 5 5 5 4 5 5 5 5 5 6 6 7 7 8 8 8 9 8 7 7 8 8 9 9 8 9 9 9 9 9 9 10 10 11
5 4 3 2 2 2 2 3 4 5 4 4 4 4 5 4 4 5 6 6 6 6 8 9 9 9 8 7 7 7 7 7 7 8 7 8 8 7 7 8 7 8 9
4 2 2 2 2 3 3 3 4 4 4 3 4 3 4 4 4 4 6 6 6 8 9 10 10 11 9 8 8 7 6 6 4 6 7 7 6 6 6 5 7 7 8
2 1 1 2 3 3 4 4 4 4 5 4 3 2 2 3 3 3 4 5 7 7 8 10 10 9 10 9 8 8 8 5 5 4 7 8 7 7 6 5 6 6 7
2 3 3 4 5 5 5 5 6 6 5 4 3 2 2 2 3 2 2 3 5 6 7 8 8 9 9 11 9 8 9 7 8 7 6 6 7 7 6 6 5 5 5
5 5 6 6 7 7 7 7 7 7 7 6 5 4 4 3 2 2 2 3 4 4 5 6 7 9 9 11 10 9 9 8 9 9 8 7 6 6 5 4 5 4 4
Wind_Direction
161 150 150 159 161 161 158 155 154 157 158 159 158 156 155 155 154 154 152 150 146 143 136 127 120 118 116 113 112 113 113 115 118 119 118 116 116 119 121 128 139 116 114
152 148 151 159 162 162 159 155 152 153 156 158 159 157 156 156 156 157 156 155 153 151 146 137 129 123 120 117 117 118 120 123 126 127 129 127 122 123 127 130 96 115 124
150 147 154 159 162 163 161 157 155 155 156 157 158 159 158 158 159 160 160 160 159 158 149 139 134 130 127 126 126 127 130 133 136 141 164 146 130 130 130 121 107 124 131
151 151 158 157 163 165 164 161 160 159 159 160 160 161 162 163 164 165 166 166 166 163 154 149 145 140 138 136 137 138 140 143 146 173 180 137 138 135 142 137 133 137 139
150 152 153 159 165 167 166 165 164 164 164 164 165 166 167 168 170 171 170 171 172 168 163 161 159 155 152 149 147 148 150 151 163 208 139 134 128 138 155 154 152 150 149
153 157 154 163 166 168 169 169 168 168 168 169 170 171 172 174 177 180 178 179 181 179 176 175 175 169 166 164 163 164 165 169 196 183 152 165 138 144 167 169 168 166 163
159 159 155 165 168 170 171 172 172 172 172 172 173 175 178 181 186 189 188 189 193 194 191 188 186 184 182 182 182 182 185 195 224 183 178 183 141 145 176 181 182 181 178
161 161 154 165 170 172 174 175 176 176 177 178 179 182 186 190 195 199 200 203 206 209 207 206 202 200 198 199 199 200 202 218 223 212 206 199 146 168 197 198 195 194 191
164 162 159 169 173 175 177 179 180 181 183 185 187 190 196 201 206 211 212 215 218 219 220 220 219 216 212 211 211 211 212 224 246 224 215 212 163 188 207 211 207 205 203
168 169 166 174 174 179 181 183 185 187 190 193 197 201 204 210 216 219 222 216 224 227 227 228 229 228 224 221 219 218 218 222 236 237 222 203 167 195 213 218 216 211 209
174 175 177 176 177 185 187 178 187 192 197 201 205 207 213 221 220 215 225 217 224 233 235 235 235 235 234 228 226 224 222 231 231 237 229 182 173 201 218 224 223 218 213
178 182 182 185 179 190 192 181 197 201 198 211 215 212 217 225 234 237 215 220 233 239 242 241 241 240 238 236 221 217 228 231 240 233 224 176 188 210 221 225 226 224 219
180 185 184 187 185 194 195 196 205 212 207 215 221 224 230 234 233 236 235 221 229 234 239 236 235 238 237 237 238 224 230 236 235 237 222 182 198 214 222 225 227 226 223
183 187 190 188 191 199 206 209 215 222 220 228 224 229 233 234 240 239 237 242 238 234 237 246 244 244 246 245 240 239 237 236 239 238 226 188 203 216 222 225 227 227 225
185 190 192 192 194 198 207 232 236 242 244 239 242 237 240 242 242 243 243 244 248 247 241 241 248 252 251 248 244 241 241 240 244 243 234 200 209 219 225 226 226 227 226
188 191 192 195 196 199 209 229 246 251 253 260 253 251 245 246 244 245 246 244 247 248 250 250 250 252 252 250 247 244 241 240 240 241 244 222 211 219 226 228 227 227 226
180 183 187 195 198 207 222 233 248 253 256 261 259 252 248 246 244 241 244 243 245 248 249 249 252 253 252 247 245 245 243 241 241 238 242 244 229 217 220 224 226 228 228
121 141 159 196 199 218 242 254 261 266 267 267 267 259 254 250 246 244 244 243 245 249 247 247 249 250 251 251 250 249 246 242 243 242 242 240 241 239 218 214 221 227 229
84 105 123 148 208 252 260 265 270 278 273 272 272 266 261 254 249 246 247 242 241 243 245 250 245 248 250 248 248 244 245 244 244 243 243 243 239 239 242 210 210 223 228
80 92 104 116 355 299 287 289 288 283 283 280 276 271 266 256 247 247 252 247 244 247 246 244 250 245 252 250 255 253 247 246 242 241 241 240 239 237 238 236 222 220 220
81 82 79 59 9 317 299 293 294 289 289 287 284 289 279 264 256 254 258 255 251 248 250 247 246 240 240 240 247 248 240 237 238 239 238 242 232 232 238 237 239 242 221
79 82 83 57 21 340 316 300 293 294 291 291 293 296 296 289 279 261 260 259 255 255 252 250 244 248 240 223 239 249 243 219 216 224 222 225 231 223 225 227 236 240 251
69 61 45 10 343 333 319 298 294 279 275 281 284 285 295 300 298 290 273 269 265 252 247 244 239 238 239 226 228 244 251 242 194 191 209 215 215 222 230 227 231 235 240
49 15 331 317 308 306 300 302 302 299 299 293 290 296 314 311 300 294 290 279 273 265 258 251 239 238 238 236 220 232 257 294 258 204 195 199 207 221 238 249 248 240 241
309 301 293 289 288 286 287 290 291 297 302 298 292 277 281 294 298 296 292 285 280 278 273 266 260 245 239 241 234 222 224 228 241 255 220 197 206 216 220 234 247 248 246
288 286 283 281 281 282 279 281 280 286 287 288 279 275 265 264 265 275 282 283 282 284 280 274 266 253 251 250 249 238 227 224 223 229 232 222 222 217 216 232 235 226 226
Height
1512 1513 1514 1517 1520 1523 1526 1529 1532 1534 1536 1538 1540 1541 1543 1544 1545 1546 1547 1548 1550 1551 1552 1553 1554 1555 1556 1556 1557 1557 1558 1558 1559 1559 1559 1560 1561 1561 1562 1563 1564 1565 1565
1511 1512 1515 1518 1521 1524 1527 1530 1532 1535 1537 1539 1541 1542 1544 1545 1546 1547 1548 1549 1551 1552 1553 1554 1555 1556 1556 1557 1558 1558 1559 1559 1560 1560 1561 1562 1562 1563 1564 1565 1566 1567 1567
1511 1512 1515 1518 1521 1524 1527 1530 1533 1536 1538 1540 1542 1543 1545 1546 1547 1548 1549 1550 1552 1553 1554 1555 1555 1556 1557 1558 1559 1559 1560 1561 1561 1562 1563 1565 1565 1565 1566 1567 1568 1568 1569
1512 1514 1516 1519 1522 1525 1528 1531 1534 1536 1538 1540 1542 1544 1545 1547 1548 1549 1550 1551 1552 1553 1554 1555 1556 1557 1558 1559 1559 1560 1561 1562 1562 1563 1566 1568 1567 1566 1567 1568 1569 1570 1571
1513 1516 1517 1520 1523 1526 1529 1532 1534 1537 1539 1541 1543 1544 1546 1547 1548 1549 1551 1552 1553 1554 1555 1556 1557 1558 1558 1559 1560 1561 1562 1562 1563 1565 1568 1568 1568 1567 1568 1569 1570 1571 1573
1514 1518 1519 1522 1524 1527 1530 1533 1535 1537 1539 1541 1543 1544 1546 1547 1549 1550 1551 1552 1553 1554 1555 1556 1557 1558 1559 1560 1560 1561 1562 1563 1564 1568 1568 1569 1569 1568 1569 1570 1571 1572 1573
1517 1520 1520 1522 1525 1528 1530 1533 1535 1537 1539 1541 1543 1544 1546 1547 1549 1550 1551 1552 1553 1554 1555 1556 1557 1557 1558 1559 1560 1561 1562 1563 1565 1568 1568 1569 1569 1569 1569 1570 1571 1572 1574
1518 1521 1521 1523 1525 1528 1531 1533 1535 1537 1539 1541 1543 1544 1545 1547 1548 1549 1550 1551 1552 1553 1554 1555 1556 1556 1557 1558 1559 1560 1561 1562 1565 1567 1568 1569 1568 1569 1570 1570 1571 1572 1574
1520 1523 1522 1524 1526 1528 1531 1533 1535 1537 1539 1541 1542 1544 1545 1546 1547 1548 1549 1550 1551 1552 1553 1553 1554 1555 1556 1556 1557 1559 1560 1561 1563 1566 1566 1567 1567 1568 1569 1570 1571 1572 1573
1521 1523 1524 1526 1527 1529 1531 1533 1535 1537 1539 1540 1541 1543 1544 1545 1546 1547 1547 1548 1549 1550 1551 1551 1552 1553 1554 1554 1555 1556 1557 1558 1560 1563 1564 1564 1564 1566 1567 1569 1570 1572 1572
1520 1523 1525 1527 1528 1530 1532 1533 1534 1536 1538 1539 1540 1541 1542 1544 1545 1546 1546 1546 1547 1548 1548 1549 1550 1551 1551 1552 1553 1553 1554 1556 1558 1560 1561 1561 1561 1563 1565 1566 1568 1570 1571
1517 1521 1523 1526 1527 1530 1532 1533 1534 1536 1537 1537 1539 1540 1541 1542 1543 1544 1544 1544 1545 1545 1546 1546 1547 1548 1548 1550 1550 1550 1551 1553 1556 1557 1557 1556 1557 1559 1561 1563 1565 1567 1568
1516 1519 1522 1524 1525 1528 1530 1532 1533 1535 1535 1536 1537 1537 1538 1539 1540 1540 1541 1542 1542 1542 1543 1544 1544 1545 1546 1547 1548 1548 1549 1551 1552 1553 1553 1552 1553 1555 1556 1558 1561 1563 1565
1514 1517 1520 1521 1523 1525 1528 1530 1531 1532 1533 1534 1534 1534 1536 1536 1536 1537 1537 1539 1540 1540 1540 1541 1541 1542 1542 1543 1543 1544 1545 1546 1547 1549 1549 1548 1549 1551 1552 1554 1556 1558 1560
1514 1516 1518 1519 1521 1523 1525 1527 1529 1530 1530 1530 1530 1530 1531 1531 1532 1532 1533 1533 1535 1536 1536 1536 1537 1538 1538 1538 1539 1540 1540 1541 1543 1544 1545 1544 1545 1547 1548 1550 1552 1554 1556
1513 1515 1517 1517 1519 1521 1522 1524 1525 1526 1526 1527 1526 1526 1525 1526 1526 1526 1527 1528 1530 1531 1532 1532 1533 1533 1533 1534 1534 1535 1535 1537 1537 1538 1540 1540 1541 1542 1544 1546 1547 1549 1552
1512 1513 1514 1516 1517 1518 1519 1520 1521 1522 1521 1521 1521 1520 1520 1520 1520 1521 1521 1522 1524 1526 1527 1527 1528 1528 1529 1530 1530 1531 1531 1532 1533 1533 1535 1536 1537 1538 1539 1541 1543 1545 1547
1512 1512 1513 1515 1516 1516 1517 1517 1517 1517 1516 1516 1515 1514 1514 1513 1514 1515 1515 1517 1518 1520 1522 1523 1524 1524 1525 1525 1526 1527 1527 1527 1528 1529 1530 1531 1533 1535 1536 1536 1538 1540 1542
1512 1512 1513 1514 1515 1515 1515 1514 1514 1513 1512 1511 1509 1508 1507 1507 1508 1509 1510 1511 1513 1515 1517 1519 1520 1520 1521 1521 1522 1522 1523 1523 1524 1525 1526 1527 1528 1529 1531 1532 1533 1535 1537
1512 1513 1513 1513 1513 1513 1513 1513 1511 1510 1509 1506 1504 1502 1500 1500 1502 1503 1504 1506 1508 1510 1512 1514 1515 1516 1517 1517 1518 1519 1519 1520 1520 1521 1522 1523 1524 1525 1527 1528 1529 1530 1531
1513 1513 1513 1513 1513 1512 1511 1511 1509 1508 1506 1504 1501 1497 1496 1495 1496 1498 1500 1502 1504 1505 1507 1509 1511 1512 1513 1514 1515 1516 1516 1516 1516 1517 1518 1520 1521 1521 1522 1524 1525 1526 1527
1514 1514 1513 1513 1513 1511 1510 1509 1507 1505 1503 1501 1499 1496 1495 1494 1493 1495 1496 1498 1499 1500 1502 1505 1507 1509 1510 1511 1512 1513 1513 1514 1512 1513 1514 1515 1517 1518 1519 1520 1520 1521 1522
1515 1515 1514 1513 1512 1511 1509 1508 1506 1504 1502 1500 1498 1495 1494 1492 1491 1492 1493 1494 1495 1497 1499 1501 1503 1504 1506 1508 1508 1510 1510 1509 1510 1511 1511 1512 1513 1514 1516 1517 1517 1517 1518
1516 1514 1513 1512 1510 1509 1508 1507 1505 1504 1501 1499 1496 1494 1492 1491 1490 1490 1490 1491 1492 1494 1495 1497 1498 1500 1502 1504 1504 1505 1507 1507 1508 1508 1509 1509 1510 1511 1512 1513 1514 1514 1514
1515 1514 1512 1511 1509 1507 1506 1504 1503 1502 1499 1497 1494 1492 1490 1489 1488 1488 1487 1487 1488 1489 1490 1492 1493 1495 1497 1499 1501 1502 1502 1503 1504 1506 1506 1508 1508 1509 1509 1509 1509 1510 1510
1514 1512 1511 1509 1507 1505 1503 1502 1500 1498 1496 1494 1492 1491 1489 1488 1486 1485 1484 1484 1484 1485 1486 1486 1487 1489 1491 1493 1495 1497 1498 1500 1501 1502 1503 1504 1505 1506 1505 1505 1506 1506 1506